Regional Weather Roundup
Issued by NWS

Home | Current Version | Previous Version | Graphics & Text | Print | Product List | Glossary On
Versions: 1 2 3 4 5 6 7 8 9 10 11 12 13 14 15 16 17 18 19 20 21 22 23 24 25 26 27 28 29 30 31 32 33 34 35 36 37 38 39 40 41 42 43 44 45 46 47 48 49 50
000
ASUS43 KIND 240509
RWRIN

WEATHER ROUNDUP FOR INDIANA
NATIONAL WEATHER SERVICE INDIANAPOLIS IN
100 AM EDT FRI MAR 24 2017

NOTE: "FAIR" INDICATES FEW OR NO CLOUDS BELOW 12,000 FEET WITH NO
SIGNIFICANT WEATHER AND/OR OBSTRUCTIONS TO VISIBILITY.

* - STATION DOES NOT REPORT WEATHER SUCH AS PRECIPITATION OR FOG.

+ - STATION NOT QUALITY CONTROLLED BY THE NATIONAL WEATHER SERVICE.
    USE DATA WITH CAUTION...ESPECIALLY DEWPOINT AND RELATIVE
    HUMIDITY OBSERVATIONS.

INZ001>003-010>013-019-020-240600-
NORTHWEST INDIANA

CITY           SKY/WX    TMP DP  RH WIND       PRES   REMARKS
GARY /AIRPORT/ PTCLDY    51  29  42 S7        30.02F
KNOX *+        CLOUDY    48  10  21 S15G21    30.03F
LA PORTE +     MOCLDY    46  34  62 S7        30.04F
MICHIGAN CITY+ MOCLDY    46  32  57 S6        30.04S
RENSSELAER +   CLOUDY    46  32  57 S12       30.02F
VALPARAISO     CLOUDY    48  34  58 S7        30.03F

$$

LMZ046-743>745-240600-
SOUTHERN LAKE MICHIGAN

STATION/POSITION TIME  TEMP    WIND        PRES    WAVE
                       AIR SEA DIR/SP/G            HT
                 (UTC) (F)     (DEG/KT/KT) (MB)    (FT)
BURNS HARBOR     0440   50     180/ 12/ 16 1016.9F
MICHIGAN CITY    0440   49     150/ 14/ 17   N/A

$$

INZ004-005-014>016-021>024-240600-
NORTH CENTRAL INDIANA

CITY           SKY/WX    TMP DP  RH WIND       PRES   REMARKS
GOSHEN         CLOUDY    48  34  58 S13       30.06F
LOGANSPORT +   PTCLDY    50  34  53 S15       30.06F
PERU/GRISSOM   CLOUDY    50  35  55 SE10      30.04F
ROCHESTER +    PTCLDY    52  34  50 S10       30.06S
SOUTH BEND     CLOUDY    48  34  58 S9        30.07S
WARSAW +       MOCLDY    46  34  61 S7        30.06F

$$

INZ006>009-017-018-025>027-240600-
NORTHEAST INDIANA

CITY           SKY/WX    TMP DP  RH WIND       PRES   REMARKS
ANGOLA *+      CLOUDY    43  36  75 SE9       30.09F
AUBURN +       CLOUDY    43  34  70 CALM      30.11R
FORT WAYNE     CLOUDY    47  37  68 S13       30.09F
HUNTINGTON +   CLOUDY    48  35  60 S10       30.08F
KENDALLVILLE + CLOUDY    43  35  73 SE7       30.08S

$$

INZ028-029-035-036-043>045-051>053-240600-
WEST CENTRAL INDIANA

CITY           SKY/WX    TMP DP  RH WIND       PRES   REMARKS
CRAWFORDSVL +  CLEAR     46  35  63 S10       30.08F
GREENCASTLE +  CLEAR     48  36  61 S10       30.10F
LAFAYETTE      CLEAR     50  34  54 S14G21    30.04F
TERRE HAUTE    CLEAR     53  38  56 S12G22    30.09F

$$

INZ030>032-037>040-046>048-054>057-064-065-240600-
CENTRAL INDIANA

CITY           SKY/WX    TMP DP  RH WIND       PRES   REMARKS
CP ATTERBURY + PTCLDY    50  34  53 S7        30.15F
FISHERS *+     PTCLDY    48  37  66 S10       30.11F
FRANKFORT +    PTCLDY    51  36  56 S12G17    30.08F
GREENWOOD *+   PTCLDY    51  33  50 S10       30.14F
INDIANAPOLIS   CLOUDY    50  32  50 SE10      30.11F
-EAGLE CREEK   CLOUDY    51  31  46 SE7       30.11F
KOKOMO +       CLOUDY    49  35  58 S17       30.07F
MARION +       PTCLDY    48  36  62 S14       30.09F
MT COMFORT *+  MOCLDY    48  36  61 S9        30.12F
SHELBYVILLE    PTCLDY    50  35  56 S9        30.14F
ZIONSVILLE +   PTCLDY    50  34  52 S13G18    30.11F

$$

INZ033-034-041-042-049-050-058-059-240600-
EAST CENTRAL INDIANA

CITY           SKY/WX    TMP DP  RH WIND       PRES   REMARKS
MUNCIE         MOCLDY    54  34  46 S16G22    30.11F
RICHMOND +     MOCLDY    46  34  61 S14       30.15F

$$

INZ060-061-067>069-081>083-085>088-240600-
SOUTHWEST INDIANA

CITY           SKY/WX    TMP DP  RH WIND       PRES   REMARKS
EVANSVILLE     CLEAR     52  42  69 SE7       30.13F
HUNTINGBURG *+ PTCLDY    56  43  61 SE9       30.14F
WASHINGTON +   CLEAR     48  38  67 MISG      30.12S

$$

INZ062-063-066-070>080-084-089>092-240600-
SOUTH CENTRAL AND SOUTHEAST INDIANA

CITY           SKY/WX    TMP DP  RH WIND       PRES   REMARKS
BEDFORD +      CLEAR     54  37  54 SE8       30.14F
BLOOMINGTON    CLEAR     51  34  52 S10       30.12F
MADISON *+     PTCLDY    54  34  47 S5        30.19F
NORTH VERNON + PTCLDY    55  34  44 S8        30.17F
SEYMOUR +      MOCLDY    52  39  62 S7        30.15F

$$





USA.gov is the U.S. government's official web portal to all federal, state and local government web resources and services.